RH
49 59 63 54 48 47 52 58 61 50 42 43 40 38 31 27 26 25 26 30 47 50 50 63 74 74 74 74 81 76 80 82 84 87 81 83 83 89 61 41 37 38 40 44
54 61 45 46 49 53 56 60 60 50 41 42 44 39 32 26 26 23 24 35 38 54 61 78 78 74 70 73 84 78 79 88 82 85 91 92 87 90 54 48 39 41 39 45
61 48 43 47 54 54 59 64 63 60 53 45 45 46 42 28 26 23 24 30 34 46 84 79 80 74 81 79 80 85 90 86 88 89 95 92 87 84 79 56 50 43 39 45
49 46 49 56 56 54 69 52 54 59 70 74 44 67 52 36 30 29 47 55 65 87 88 84 76 81 83 83 83 88 90 90 94 94 93 90 90 85 88 70 54 46 41 43
36 44 54 61 51 51 57 54 63 60 65 82 70 79 57 48 46 62 60 60 60 82 88 86 79 82 80 90 97 94 95 95 96 94 93 94 89 82 81 81 73 55 46 43
36 35 52 51 46 47 47 66 74 74 77 91 84 74 64 90 85 79 71 67 65 69 75 83 84 78 80 89 96 96 96 96 96 95 93 91 89 88 83 80 78 67 55 52
47 41 47 47 52 51 60 87 98 90 97 96 91 87 74 82 81 86 84 79 85 86 85 91 90 92 92 93 95 96 96 98 95 94 92 95 92 81 83 82 82 69 57 56
64 59 50 40 48 59 72 82 100 99 98 96 90 98 89 70 74 84 75 84 88 93 96 99 94 93 95 94 95 96 97 97 97 95 96 94 87 91 81 79 69 64 56 55
61 62 43 37 38 55 68 93 89 100 95 96 88 78 72 68 74 85 87 83 90 94 96 96 94 96 98 98 96 96 97 98 96 94 92 86 78 72 69 65 68 62 58 50
48 65 43 37 39 55 73 79 92 95 95 94 76 58 65 76 84 88 92 96 89 90 94 96 94 93 94 93 90 90 90 92 85 73 60 61 58 52 55 56 59 51 52 47
48 49 44 40 43 51 52 61 82 88 93 95 92 66 51 57 58 61 84 94 89 74 77 68 62 65 63 59 54 49 61 50 53 53 45 43 43 42 41 43 45 51 47 49
47 51 60 45 34 35 33 41 68 87 89 88 87 76 51 58 56 57 59 58 61 59 57 54 51 47 48 50 48 46 47 45 44 40 39 41 40 45 40 43 48 42 45 47
42 51 63 43 36 38 42 36 42 76 85 85 85 70 49 54 56 58 62 66 60 53 52 51 52 50 50 49 46 42 40 42 38 37 40 42 42 40 42 38 41 47 48 48
50 56 50 59 47 48 49 41 37 60 50 50 68 47 36 54 58 57 57 58 55 50 49 51 51 52 50 44 44 46 45 42 44 42 44 48 46 42 46 46 45 44 43 43
42 51 52 48 44 44 46 46 39 40 42 40 42 45 42 51 52 52 54 52 50 48 46 46 50 49 47 45 39 40 42 43 46 47 50 51 50 50 50 52 52 51 50 50
37 46 57 55 43 45 46 40 40 34 29 37 46 51 51 53 49 50 52 49 49 46 44 43 43 44 47 48 48 49 52 50 47 50 52 52 51 52 55 55 55 57 60 62
35 57 64 66 49 50 46 39 40 34 47 40 46 50 50 52 49 54 53 47 47 46 44 44 45 46 47 46 45 49 52 53 51 50 50 49 51 54 57 58 60 64 69 70
37 53 65 74 61 61 40 35 33 43 48 50 48 50 47 50 51 56 59 49 48 45 46 47 49 51 51 49 47 47 48 51 49 50 50 52 55 58 62 67 71 75 76 77
35 49 68 80 80 54 41 33 33 38 44 47 47 48 46 46 50 54 51 50 50 48 50 52 53 51 50 47 46 46 49 51 53 56 57 57 60 63 67 71 75 76 78 81
48 52 64 73 79 72 47 35 32 32 40 40 42 45 45 50 59 55 53 53 52 52 50 48 49 48 48 50 50 54 60 59 59 59 58 60 62 65 69 72 75 77 83 77
60 67 72 77 86 64 53 38 38 36 38 41 41 42 48 53 58 53 52 53 52 50 49 49 49 52 53 53 56 62 62 62 60 59 60 63 66 66 68 74 77 81 82 81
63 78 81 78 84 71 40 40 38 40 48 41 47 53 53 59 60 58 55 57 56 56 54 52 53 55 55 56 61 65 66 64 63 64 65 68 69 62 63 75 79 78 76 74
60 52 61 66 65 47 42 40 44 45 41 43 47 55 54 60 60 60 60 58 55 54 55 54 57 61 65 66 66 70 73 68 67 68 72 72 71 68 68 69 70 70 74 83
47 51 64 57 50 48 39 41 41 42 39 40 46 54 56 57 61 61 59 58 57 58 56 56 60 63 70 74 74 77 73 67 68 72 76 75 75 71 70 65 68 75 86 93
42 49 48 57 48 45 42 39 40 43 44 43 46 54 53 58 62 57 60 58 58 57 58 60 63 68 77 80 78 74 71 69 72 78 77 82 76 74 75 73 76 81 87 85
51 41 39 34 41 47 41 43 42 43 44 44 46 56 59 58 60 60 59 58 58 59 63 68 69 78 83 81 79 78 76 74 76 79 82 81 72 76 80 85 84 70 66 65
Wind_Speed
2 2 5 9 6 5 6 5 9 9 8 7 11 10 8 9 6 9 9 9 10 16 21 14 16 16 15 14 15 18 17 12 10 9 9 5 7 4 2 4 7 6 7 7
6 3 8 7 8 6 7 7 11 8 5 8 9 16 7 8 8 8 9 9 12 6 8 13 17 19 18 18 19 18 17 14 11 9 4 3 6 3 3 3 3 6 6 7
3 5 6 3 5 7 5 8 7 12 5 5 5 15 4 6 7 6 9 8 12 9 11 15 19 20 16 17 18 16 16 16 12 10 7 5 5 4 3 2 2 4 7 6
5 3 4 4 5 4 9 6 12 14 7 6 2 13 4 7 9 5 8 9 8 7 12 16 21 15 13 9 10 11 14 14 10 11 7 12 7 8 4 4 4 4 6 7
8 4 4 3 5 3 11 12 9 11 13 4 5 4 6 4 5 7 9 9 9 9 18 19 20 19 19 11 4 9 12 10 8 8 8 8 6 2 3 4 7 3 4 6
7 5 2 4 8 8 13 7 13 4 1 3 7 4 5 5 8 11 13 10 9 6 10 13 13 16 15 12 11 13 13 9 10 9 8 8 8 8 4 4 5 4 3 4
7 7 6 2 8 5 5 6 5 6 4 4 12 5 6 7 10 7 13 10 7 9 1 8 14 13 12 14 13 12 15 13 11 9 6 6 5 5 7 6 4 4 4 2
4 11 2 4 4 6 4 3 2 3 5 5 5 3 6 14 8 7 11 10 12 13 10 10 9 12 11 10 11 10 10 10 9 8 8 10 6 4 6 6 4 4 4 4
5 8 7 5 5 1 3 4 3 1 3 4 2 2 4 4 9 10 13 14 11 10 8 12 10 8 5 6 8 8 10 9 9 9 7 6 6 6 5 6 4 4 6 5
2 7 4 9 5 4 1 7 1 2 6 5 7 4 6 4 5 7 5 7 10 6 7 8 8 8 6 9 8 9 9 8 8 8 5 6 7 8 7 7 7 8 7 7
1 2 9 5 3 5 3 3 1 4 1 3 4 4 6 4 0 1 6 7 7 6 7 8 7 7 7 9 10 10 10 12 10 9 9 10 9 10 9 9 8 7 7 7
1 2 6 8 9 7 4 3 3 4 6 1 1 5 5 5 6 6 7 8 4 3 9 9 9 9 10 9 10 10 9 10 9 10 11 11 10 9 10 8 7 6 7 6
1 1 6 12 7 6 4 7 3 3 3 3 3 4 3 6 7 7 7 7 7 9 10 8 9 8 7 8 9 10 10 10 10 12 12 10 9 9 8 7 6 6 6 5
3 2 6 6 9 3 8 14 10 3 3 2 3 3 4 4 3 3 5 6 6 6 7 6 7 7 7 8 9 10 10 10 10 11 10 9 8 8 7 7 7 6 5 5
4 3 5 8 15 10 13 12 5 4 3 3 3 1 5 4 6 4 4 5 6 6 6 6 6 7 8 9 10 10 9 9 8 9 9 7 7 7 7 6 6 5 5 4
5 4 5 7 3 4 4 3 3 3 3 3 3 3 4 4 5 4 7 6 6 6 6 7 7 7 7 8 8 7 7 7 8 7 7 6 6 6 6 5 5 5 4 4
3 2 4 6 6 8 2 3 1 2 1 2 2 2 1 5 5 2 3 7 8 8 7 7 7 7 6 7 7 7 7 5 7 7 6 6 6 6 5 5 5 5 4 3
4 2 2 5 7 1 5 1 4 6 1 1 2 2 4 5 4 2 2 8 8 8 8 7 7 6 6 5 7 6 6 6 6 6 6 5 6 6 5 5 4 2 1 1
7 3 1 1 3 6 3 3 4 3 3 2 4 3 4 5 1 3 4 5 7 7 6 6 6 6 7 7 7 8 7 6 7 6 6 5 5 4 3 3 1 0 0 2
5 2 3 1 0 4 4 2 1 3 5 4 5 6 6 3 2 5 3 3 7 8 8 10 7 6 8 5 7 8 7 7 6 4 3 3 3 3 3 2 1 2 1 2
4 2 6 3 4 8 6 2 2 2 8 4 5 5 6 5 5 4 6 7 6 8 9 7 7 7 6 6 7 8 6 6 3 3 3 3 2 3 2 2 1 2 3 3
7 7 5 3 2 7 5 3 5 6 2 4 3 3 3 4 6 6 6 8 9 10 7 7 8 6 4 6 8 7 6 2 4 5 5 4 4 3 2 3 2 2 2 3
3 6 4 9 7 5 5 6 3 6 5 4 4 4 8 8 5 7 7 7 7 9 7 5 8 7 6 6 6 7 2 4 6 6 6 5 4 4 4 3 3 2 3 2
3 2 3 2 4 3 5 2 4 7 6 5 5 7 8 8 8 7 7 7 7 6 7 5 7 7 5 5 6 6 5 5 6 6 5 4 4 5 5 3 2 2 0 2
6 1 2 7 7 7 5 6 4 3 3 4 5 7 9 9 9 10 7 8 7 6 5 6 7 6 6 6 6 5 5 5 5 4 3 4 3 4 4 3 1 2 3 4
7 11 8 12 7 5 4 3 5 6 6 7 7 6 6 9 11 7 8 7 7 7 5 6 6 8 6 6 6 5 5 5 4 3 4 2 3 3 3 3 4 7 10 12
Wind_Direction
220 71 251 250 241 256 276 277 271 288 273 275 276 276 259 276 283 279 273 244 219 208 218 185 176 168 166 154 163 165 154 151 153 145 146 143 143 155 144 147 160 160 143 146
8 274 262 288 304 322 305 305 297 285 263 289 284 282 243 245 259 237 256 236 246 182 180 159 173 173 173 171 169 176 168 149 154 162 145 147 148 128 92 100 163 163 150 150
234 256 314 4 325 316 292 268 271 279 282 268 278 279 284 267 266 265 277 255 232 215 153 156 166 175 173 175 173 167 164 161 153 152 120 109 83 75 74 161 219 202 158 158
272 273 300 319 303 292 305 249 280 284 296 279 127 287 270 273 284 295 330 345 258 160 149 158 166 172 177 185 174 157 146 158 157 158 168 167 161 158 196 162 156 203 173 164
277 285 313 299 263 294 262 299 277 290 284 349 276 241 280 299 302 330 320 316 323 194 154 161 166 165 167 214 182 144 139 150 159 162 165 167 137 139 148 137 140 205 188 165
263 264 251 245 289 268 282 314 330 345 76 261 334 240 302 27 316 313 319 303 309 190 180 168 162 167 176 166 155 147 139 150 167 170 162 152 144 147 170 139 148 191 165 167
328 295 292 267 312 319 21 1 318 6 31 302 317 320 266 340 344 309 313 319 34 47 313 145 145 153 167 168 164 156 161 162 171 171 151 133 159 148 155 168 185 176 141 140
14 326 331 345 247 276 41 93 36 321 335 297 343 321 320 312 317 345 14 33 53 49 47 70 132 158 163 165 166 168 167 162 151 136 172 137 156 171 210 171 167 182 150 139
346 281 302 267 282 45 333 23 124 191 234 313 282 249 286 345 24 11 27 38 35 59 52 66 65 75 115 134 141 129 136 132 131 130 152 154 168 165 146 123 128 114 113 112
305 298 258 305 2 38 297 154 312 65 350 349 322 29 348 42 347 2 35 39 27 5 64 64 61 74 77 87 86 101 106 126 135 119 120 117 130 124 114 107 105 104 93 96
65 134 287 343 18 325 329 333 42 123 303 340 316 344 10 11 173 193 61 20 38 356 61 61 54 57 69 73 82 93 111 111 105 108 111 104 96 92 90 96 91 91 95 102
281 160 288 259 281 262 304 304 105 85 302 134 142 300 26 21 21 52 63 102 129 107 79 72 66 63 60 71 80 79 82 86 90 90 87 86 85 79 86 83 84 82 95 95
303 347 330 343 1 6 3 319 330 114 56 313 63 309 67 57 38 16 69 54 44 50 57 58 63 60 65 66 73 76 80 77 77 84 85 77 84 89 85 88 88 92 95 90
98 162 177 215 245 287 309 312 305 123 88 279 249 307 31 107 118 84 65 64 61 65 74 70 61 63 60 67 76 72 69 74 79 81 84 84 81 87 87 84 82 90 100 105
75 248 213 241 260 274 258 265 319 48 293 119 302 42 325 178 160 153 121 91 88 94 88 86 88 87 83 79 82 82 79 85 93 90 87 91 92 87 87 82 82 86 83 84
357 285 351 291 243 319 251 341 43 21 6 105 102 47 327 67 87 115 140 126 115 107 98 102 103 99 94 95 90 87 93 96 99 95 103 105 94 88 87 85 79 66 47 36
264 208 16 275 321 319 20 319 15 92 346 264 176 131 116 63 82 82 169 152 147 141 134 127 128 122 115 108 117 116 121 114 102 108 109 105 105 95 85 82 74 63 58 43
209 149 145 271 335 123 248 56 112 121 342 22 90 100 140 149 154 96 264 169 154 141 132 130 126 108 106 105 96 110 109 98 96 88 87 83 88 86 79 78 78 81 92 60
180 119 276 105 281 290 261 208 188 200 276 246 164 173 164 167 149 344 3 180 156 147 135 127 126 122 114 112 113 97 82 88 84 88 91 95 111 113 104 101 88 329 303 288
114 96 132 98 128 231 242 203 101 97 286 225 175 189 183 171 106 256 349 106 100 103 120 121 116 110 106 108 102 92 95 92 90 96 105 111 122 123 118 125 331 292 295 296
139 165 194 226 251 284 241 180 116 120 238 192 174 192 163 184 203 166 115 74 91 116 119 108 99 104 115 118 106 98 104 102 140 133 114 90 92 123 109 87 6 337 343 360
173 157 203 154 198 271 187 94 178 215 219 185 165 176 140 128 121 124 118 114 119 119 115 111 101 90 89 110 102 104 100 114 67 43 34 55 46 41 41 35 9 24 38 15
244 192 200 182 213 236 226 206 187 166 166 182 170 165 152 144 158 152 141 131 136 133 128 112 113 99 76 95 106 102 48 64 69 64 54 49 47 27 10 8 14 18 13 29
245 150 214 28 276 248 246 252 191 180 187 172 163 162 162 160 156 152 144 139 137 139 134 126 116 107 95 91 82 96 85 84 78 75 61 41 23 13 4 14 28 3 7 315
202 57 216 258 281 293 253 220 209 203 171 154 141 166 176 152 166 161 154 152 151 145 131 132 126 119 119 99 84 72 70 79 87 85 58 23 29 12 350 339 294 321 263 281
185 214 206 251 201 184 228 306 177 179 197 200 165 141 163 162 162 155 156 156 148 143 135 122 118 116 119 110 97 79 65 76 84 59 24 25 13 342 344 335 323 338 337 330